Detroit Lakes, MN

5:10 PM CST on January 22, 2018 (GMT -0600)
Detroit Lakes

Weather History for KDTL - December, 2012

Change the Weather History Date:

Monday, December 31, 2012

  Actual Average Record
Temperature  
Mean Temperature 0 °F -  
Max Temperature 14 °F 14 °F 37 °F (1956)
Min Temperature -13 °F -3 °F -38 °F (1978)
Degree Days  
Heating Degree Days 64    
Moisture  
Dew Point -7 °F    
Average Humidity 86    
Maximum Humidity 93    
Minimum Humidity 77    
Precipitation  
Precipitation 0.00 in - - ()
Sea Level Pressure  
Sea Level Pressure 30.18 in    
Wind  
Wind Speed 9 mph (NW)    
Max Wind Speed 18 mph    
Max Gust Speed 25 mph    
Visibility 10 miles    
Events Snow    
Averages and records for this station are not official NWS values.
T = Trace of Precipitation, MM = Missing Value Source: NWS Daily Summary

Daily Weather History Graph

Daily Weather History Graph

Search for Another Location

Airport or City:

Trip Planner

Search our weather history database for the weather conditions in past years. The results will help you decide how hot, cold, wet, or windy it might be!

Date:

Astronomy

Dec. 31, 2012 Rise Set
Actual Time 8:08 AM CST 4:45 PM CST
Civil Twilight 7:33 AM CST 5:20 PM CST
Nautical Twilight 6:55 AM CST 5:58 PM CST
Astronomical Twilight 6:18 AM CST 6:35 PM CST
Moon 8:31 PM CST (12/31) 9:38 AM CST (12/31)
Length of Visible Light 9h 46m
Length of Day
8h 36m
Waning Gibbous, 90% of the Moon is Illuminated
Dec 31
Waning Gibbous
Jan 4
Last Quarter
Jan 11
New
Jan 18
First Quarter
Jan 26
Full

Hourly Weather History & Observations

Time (CST) Temp. Windchill Dew Point Humidity Pressure Visibility Wind Dir Wind Speed Gust Speed Precip Events Conditions
12:12 AM 14.0 °F -2.0 °F 12.2 °F 93% 30.03 in 3.0 mi NW 16.1 mph - N/A Snow Light Snow
12:33 AM 10.4 °F -7.2 °F 5.0 °F 79% 30.04 in 7.0 mi NNW 17.3 mph 25.3 mph N/A Snow Light Snow
12:52 AM 10.4 °F -6.0 °F 5.0 °F 79% 30.05 in 10.0 mi NW 15.0 mph 24.2 mph N/A Snow Light Snow
1:12 AM 8.6 °F -10.0 °F 3.2 °F 79% 30.05 in 10.0 mi NNW 18.4 mph 24.2 mph N/A   Mostly Cloudy
1:52 AM 5.0 °F -10.8 °F -0.4 °F 78% 30.07 in 10.0 mi NW 11.5 mph - N/A   Scattered Clouds
2:12 AM 3.2 °F -13.1 °F -0.4 °F 85% 30.09 in 10.0 mi NNW 11.5 mph - N/A   Clear
2:33 AM 1.4 °F -17.6 °F -2.2 °F 85% 30.10 in 10.0 mi NNW 15.0 mph 19.6 mph N/A   Clear
2:52 AM 1.4 °F -14.5 °F -4.0 °F 78% 30.11 in 10.0 mi NNW 10.4 mph - N/A   Clear
3:12 AM -0.4 °F -15.7 °F -4.0 °F 85% 30.12 in 10.0 mi NNW 9.2 mph - N/A   Clear
3:33 AM -2.2 °F -16.8 °F -5.8 °F 85% 30.14 in 4.0 mi NNW 8.1 mph - N/A   Clear
3:52 AM -2.2 °F -18.0 °F -5.8 °F 85% 30.14 in 5.0 mi NNW 9.2 mph - N/A   Clear
4:12 AM -4.0 °F -17.8 °F -5.8 °F 92% 30.15 in 5.0 mi NNW 6.9 mph - N/A   Clear
4:33 AM -4.0 °F -20.2 °F -5.8 °F 92% 30.15 in 10.0 mi NNW 9.2 mph - N/A   Clear
4:52 AM -4.0 °F -20.2 °F -7.6 °F 85% 30.15 in 10.0 mi NNW 9.2 mph - N/A   Clear
5:12 AM -4.0 °F -20.2 °F -7.6 °F 85% 30.16 in 10.0 mi NNW 9.2 mph - N/A   Clear
5:33 AM -5.8 °F -22.4 °F -7.6 °F 92% 30.17 in 10.0 mi NNW 9.2 mph - N/A   Clear
5:52 AM -5.8 °F -22.4 °F -7.6 °F 92% 30.17 in 10.0 mi NNW 9.2 mph - N/A   Clear
6:12 AM -5.8 °F -19.9 °F -7.6 °F 92% 30.17 in 10.0 mi NNW 6.9 mph - N/A   Clear
6:33 AM -5.8 °F -21.2 °F -9.4 °F 84% 30.17 in 10.0 mi NNW 8.1 mph - N/A   Clear
6:52 AM -5.8 °F -22.4 °F -9.4 °F 84% 30.17 in 10.0 mi NNW 9.2 mph - N/A   Clear
7:12 AM -5.8 °F -22.4 °F -9.4 °F 84% 30.18 in 10.0 mi NNW 9.2 mph - N/A   Clear
7:33 AM -7.6 °F -22.1 °F -9.4 °F 92% 30.18 in 10.0 mi NNW 6.9 mph - N/A   Clear
7:52 AM -7.6 °F -22.1 °F -9.4 °F 92% 30.18 in 10.0 mi NNW 6.9 mph - N/A   Clear
8:12 AM -7.6 °F -20.6 °F -9.4 °F 92% 30.18 in 10.0 mi NNW 5.8 mph - N/A   Clear
8:33 AM -7.6 °F -22.1 °F -9.4 °F 92% 30.18 in 10.0 mi NNW 6.9 mph - N/A   Clear
8:52 AM -7.6 °F -20.6 °F -9.4 °F 92% 30.18 in 10.0 mi NNW 5.8 mph - N/A   Clear
9:12 AM -5.8 °F -16.7 °F -9.4 °F 84% 30.18 in 10.0 mi NNW 4.6 mph - N/A   Clear
9:33 AM -5.8 °F -19.9 °F -7.6 °F 92% 30.18 in 10.0 mi North 6.9 mph - N/A   Clear
9:53 AM -4.0 °F -14.6 °F -7.6 °F 85% 30.19 in 10.0 mi NNW 4.6 mph - N/A   Clear
10:12 AM -4.0 °F -14.6 °F -5.8 °F 92% 30.20 in 10.0 mi NW 4.6 mph - N/A   Clear
10:33 AM -4.0 °F -14.6 °F -5.8 °F 92% 30.22 in 10.0 mi WNW 4.6 mph - N/A   Clear
10:52 AM -4.0 °F -16.3 °F -5.8 °F 92% 30.23 in 10.0 mi NW 5.8 mph - N/A   Clear
11:13 AM -4.0 °F -17.8 °F -5.8 °F 92% 30.23 in 10.0 mi NW 6.9 mph - N/A   Clear
11:33 AM -2.2 °F -15.6 °F -5.8 °F 85% 30.23 in 10.0 mi NW 6.9 mph - N/A   Clear
11:52 AM -2.2 °F -14.2 °F -5.8 °F 85% 30.22 in 10.0 mi NW 5.8 mph - N/A   Clear
12:13 PM -0.4 °F -13.4 °F -4.0 °F 85% 30.21 in 10.0 mi NW 6.9 mph - N/A   Clear
12:33 PM -0.4 °F -13.4 °F -4.0 °F 85% 30.21 in 10.0 mi NW 6.9 mph - N/A   Clear
12:52 PM -0.4 °F -13.4 °F -4.0 °F 85% 30.20 in 10.0 mi NW 6.9 mph - N/A   Clear
1:13 PM -0.4 °F -13.4 °F -4.0 °F 85% 30.20 in 10.0 mi NNW 6.9 mph - N/A   Clear
1:33 PM -0.4 °F -13.4 °F -4.0 °F 85% 30.19 in 10.0 mi NW 6.9 mph - N/A   Clear
1:52 PM -0.4 °F -15.7 °F -4.0 °F 85% 30.19 in 10.0 mi NNW 9.2 mph - N/A   Clear
2:13 PM 1.4 °F -13.5 °F -2.2 °F 85% 30.18 in 10.0 mi NW 9.2 mph - N/A   Clear
2:33 PM 1.4 °F -12.5 °F -2.2 °F 85% 30.20 in 10.0 mi NW 8.1 mph - N/A   Clear
2:52 PM 1.4 °F -12.5 °F -4.0 °F 78% 30.21 in 10.0 mi NW 8.1 mph - N/A   Clear
3:13 PM 1.4 °F -12.5 °F -4.0 °F 78% 30.21 in 10.0 mi NW 8.1 mph - N/A   Clear
3:33 PM 1.4 °F -12.5 °F -4.0 °F 78% 30.20 in 10.0 mi NNW 8.1 mph - N/A   Clear
3:52 PM -0.4 °F -14.7 °F -4.0 °F 85% 30.20 in 10.0 mi NNW 8.1 mph - N/A   Clear
4:33 PM -0.4 °F -10.4 °F -5.8 °F 78% 30.21 in 10.0 mi NNW 4.6 mph - N/A   Clear
4:52 PM -2.2 °F -10.4 °F -5.8 °F 85% 30.22 in 10.0 mi NW 3.5 mph - N/A   Clear
5:13 PM -2.2 °F -10.4 °F -5.8 °F 85% 30.21 in 10.0 mi NW 3.5 mph - N/A   Clear
5:32 PM -4.0 °F -12.4 °F -5.8 °F 92% 30.22 in 10.0 mi NNW 3.5 mph - N/A   Clear
5:53 PM -4.0 °F - -5.8 °F 92% 30.22 in 10.0 mi Calm Calm - N/A   Clear
5:59 PM -4.0 °F - -5.8 °F 92% 30.21 in 10.0 mi Calm Calm - N/A   Clear
6:33 PM -4.0 °F - -7.6 °F 85% 30.21 in 10.0 mi Calm Calm - N/A   Clear
6:53 PM -5.8 °F - -7.6 °F 92% 30.22 in 10.0 mi Calm Calm - N/A   Clear
7:12 PM -7.6 °F - -9.4 °F 92% 30.22 in 10.0 mi Calm Calm - N/A   Clear
7:32 PM -5.8 °F - -9.4 °F 84% 30.21 in 10.0 mi Calm Calm - N/A   Clear
7:53 PM -5.8 °F - -7.6 °F 92% 30.22 in 10.0 mi Calm Calm - N/A   Clear
8:12 PM -5.8 °F - -7.6 °F 92% 30.21 in 10.0 mi Calm Calm - N/A   Clear
8:33 PM -9.4 °F - -13.0 °F 84% 30.21 in 10.0 mi Calm Calm - N/A   Clear
8:53 PM -7.6 °F -16.5 °F -9.4 °F 92% 30.21 in 10.0 mi SW 3.5 mph - N/A   Clear
9:12 PM -7.6 °F - -9.4 °F 92% 30.20 in 10.0 mi Calm Calm - N/A   Clear
9:32 PM -9.4 °F - -14.8 °F 77% 30.20 in 10.0 mi Calm Calm - N/A   Clear
9:53 PM -9.4 °F - -13.0 °F 84% 30.20 in 10.0 mi Calm Calm - N/A   Clear
10:12 PM -13.0 °F -22.7 °F -16.6 °F 84% 30.21 in 10.0 mi NNE 3.5 mph - N/A   Clear
10:32 PM -13.0 °F - -16.6 °F 84% 30.21 in 10.0 mi Calm Calm - N/A   Clear
10:53 PM -11.2 °F - -14.8 °F 84% 30.21 in 10.0 mi Calm Calm - N/A   Clear
11:12 PM -11.2 °F - -14.8 °F 84% 30.21 in 10.0 mi Calm Calm - N/A   Clear
11:32 PM -13.0 °F - -16.6 °F 84% 30.21 in 10.0 mi Calm Calm - N/A   Clear
11:53 PM -9.4 °F - -13.0 °F 84% 30.21 in 10.0 mi Calm Calm - N/A   Clear